Zurück zum Katalog

ONEWEB-0707

AktivKommunikationPO
NORAD 61612·PAYLOAD·🇬🇧 United Kingdom

Gestartet Oct 20, 2024 von Vandenberg Space Force Base

Loading…

Nächste Überflüge (nächste 24 Stunden)

TLE

AktuellSource: CelesTrak SupGP

Epoche: Sep 14, 2026, 19:25 UTC

1 61612C 24188U   26257.80920556  .00002723  00000+0  78084-2 0  2575
2 61612  87.8915  18.4204 0001157 102.1048   7.4141 13.10374566    19

Verfolge ONEWEB-0707 in Echtzeit mit AllMySat

Download on the App Store